This is the latest recevied weather packets stored in our database for station/object E22ZMG-3. If no packets are shown the sender has not sent any weather packets the latest 10 day(s).
| Time | Temp. | Humidity | Pressure | Rain* | Wind** | Luminosity | Snow |
|---|---|---|---|---|---|---|---|
| 1777633169 | 38.89° C | 32% | 971 hPa | - | - | 0 W/m² | - |
| 1777632543 | 40° C | 31% | 971 hPa | - | - | 0 W/m² | - |
| 1777631919 | 39.44° C | 31% | 971 hPa | - | - | 0 W/m² | - |
| 1777631294 | 40° C | 30% | 971 hPa | - | - | 0 W/m² | - |
| 1777630669 | 40° C | 29% | 971 hPa | - | - | 0 W/m² | - |
| 1777630045 | 40.56° C | 28% | 971 hPa | - | - | 0 W/m² | - |
| 1777629420 | 40.56° C | 29% | 971 hPa | - | - | 0 W/m² | - |
| 1777628795 | 40.56° C | 30% | 971 hPa | - | - | 0 W/m² | - |
| 1777628171 | 40° C | 29% | 972 hPa | - | - | 0 W/m² | - |
| 1777627546 | 40° C | 29% | 972 hPa | - | - | 0 W/m² | - |
| 1777626922 | 39.44° C | 28% | 972 hPa | - | - | 0 W/m² | - |
| 1777626298 | 40° C | 30% | 972 hPa | - | - | 0 W/m² | - |
| 1777625673 | 39.44° C | 30% | 972 hPa | - | - | 0 W/m² | - |
| 1777625048 | 39.44° C | 30% | 972 hPa | - | - | 0 W/m² | - |
| 1777624424 | 40.56° C | 27% | 972 hPa | - | - | 0 W/m² | - |
| 1777623800 | 40.56° C | 29% | 972 hPa | - | - | 0 W/m² | - |
| 1777623174 | 40.56° C | 30% | 972 hPa | - | - | 0 W/m² | - |
| 1777622549 | 40° C | 30% | 973 hPa | - | - | 0 W/m² | - |
| 1777621925 | 40.56° C | 28% | 973 hPa | - | - | 0 W/m² | - |
| 1777621773 | 41.11° C | 28% | 973 hPa | - | - | 0 W/m² | - |
| 1777621572 | 41.67° C | 29% | 973 hPa | - | - | 0 W/m² | - |
| 1777620944 | 41.11° C | 29% | 973 hPa | - | - | 0 W/m² | - |
| 1777620318 | 40.56° C | 29% | 973 hPa | - | - | 0 W/m² | - |
| 1777619693 | 40° C | 29% | 974 hPa | - | - | 0 W/m² | - |
| 1777619066 | 40° C | 29% | 974 hPa | - | - | 0 W/m² | - |
* Rain since midnight (hover to see other rain measurements)
** Current wind speed in m/s (hover to see current wind gust speed)